SL-14 DEB, 45299

Orbit data source: Space-Track

SL-14 DEB, 45299 is space debris in LEO originally from a launch on Thu, 15 Aug 1991 UTC launched from the Plesetsk Missile And Space Complex (PKMTR). Debris objects in space refer to the collection of defunct objects orbiting the Earth. Examples of debris include non-operational satellites, rocket bodies, and fragments generated from explosions, collisions, or faulty payload assembly.

Loading next visibility...
Identifier
45299, 1991-056AM
Orbit
LEO
Country
Flag of CISCIS
Related business
Manufacturer
Unknown
Mission
Spacecraft
Bus & Motor
Unknown
Mass
Unknown
Launch date (UTC)
1991-08-15 (34 years ago)
Launch vehicle
Unknown
Launch site
Plesetsk Missile And Space Complex (PKMTR)
Object type
Payload
Rocket body
Debris
Shape & HBR
Unknown
Radar Cross Section
Medium (>0.1 m² and <1 m²)

Expand to show TLE details & history
Last TLE update: 12 hours ago

TLE from 12 hours ago
0 SL-14 DEB
1 45299U 91056AM  25260.26770126 -.00000084  00000-0 -26304-3 0  9998
2 45299  82.6313   6.4627 0088926 336.4644  23.2417 13.12158647266979
Epoch: 2025-09-17T06:25Z
TLE epoch observation values (Epoch: 2025-09-17T06:25:29.388Z)
Latitude
-0.00007°
Longitude
-86.35586°
Altitude
1,155.665 km
Speed
7.305 km/s
True Right ascension
00h 25m 51s
True Declination
0° 00' 00"
Sunlit
Object was in full shadow at epoch
Visualization orbit readout
Latitude
Unknown
Longitude
Unknown
Altitude
Unknown
Speed
Unknown
Apparent Right ascension
Unknown
Apparent Declination
Unknown
Sunlit
N/A
Visualization observer readout
Local Sidereal Time
11:17:37
Azimuth
Unknown
Elevation
Unknown
Doppler factor
Unknown
Orbital elements
Apogee altitude
1,279.565 km
Perigee altitude
1,144.571 km
Semi-major axis
7,590.205 km
Eccentricity
0.00889
Inclination
82.6313°
RAAN
6.4627°
Arg. of periapsis
336.4644°
True anomaly
23.64796°
Mean anomaly
23.2417°
Eccentric anomaly
23.44441°
Mean motion
3.28218 °/min
Orbital period
109.68 mins
BSTAR
-0.00026304
Loading maneuver chart data...
Computing Atmospheric mass density...
Loading historical data...
Loading historical data...
Loading historical data...
Loading historical data...
Loading historical data...
Loading historical data...
Loading historical data...

Documentation

Showing up to 5 results
|